Hourly Weather Kista

Today, 26 October, Monday

Time Temperature Precipitation Wind Pressure Humidity
00:00 +10°C° 0.1 mm 5 mps 750 mmHg 90%
01:00 +10°C° 0.1 mm 5 mps 750 mmHg 90%
02:00 +10°C° 0.3 mm 5 mps 750 mmHg 90%
03:00 +10°C° 0.3 mm 5 mps 749 mmHg 90%
04:00 +10°C° 0.3 mm 6 mps 749 mmHg 90%
05:00 +10°C° 0.3 mm 6 mps 749 mmHg 90%
06:00 +10°C° 0.3 mm 6 mps 749 mmHg 90%
07:00 +10°C° 0.3 mm 6 mps 749 mmHg 90%
08:00 +10°C° 0.3 mm 6 mps 749 mmHg 90%
09:00 +10°C° 0.3 mm 5 mps 750 mmHg 90%
10:00 +10°C° 0.3 mm 5 mps 750 mmHg 91%
11:00 +11°C° 0.1 mm 4 mps 750 mmHg 91%
12:00 +11°C° 0.1 mm 4 mps 750 mmHg 91%
13:00 +12°C° 0 mm 2 mps 749 mmHg 91%
14:00 +12°C° 0 mm 2 mps 749 mmHg 92%
15:00 +12°C° 0 mm 2 mps 749 mmHg 93%
16:00 +11°C° 0 mm 3 mps 748 mmHg 94%
17:00 +10°C° 0 mm 3 mps 748 mmHg 95%
18:00 +10°C° 0 mm 3 mps 749 mmHg 95%
19:00 +10°C° 0 mm 3 mps 749 mmHg 95%
20:00 +10°C° 0.2 mm 3 mps 749 mmHg 96%
21:00 +10°C° 0.2 mm 3 mps 748 mmHg 95%
22:00 +11°C° 0.2 mm 4 mps 748 mmHg 95%
23:00 +11°C° 1.1 mm 1 mps 750 mmHg 97%

Tomorrow, 27 October, Tuesday

Time Temperature Precipitation Wind Pressure Humidity
00:00 +10°C° 1.1 mm 1 mps 750 mmHg 97%
01:00 +10°C° 1.1 mm 1 mps 750 mmHg 97%
02:00 +10°C° 0.2 mm 3 mps 748 mmHg 95%
03:00 +10°C° 0.2 mm 4 mps 747 mmHg 94%
04:00 +11°C° 0.2 mm 4 mps 746 mmHg 93%
05:00 +10°C° 0.2 mm 4 mps 747 mmHg 93%
06:00 +10°C° 0.2 mm 3 mps 747 mmHg 93%
07:00 +9°C° 0.2 mm 2 mps 747 mmHg 94%
08:00 +9°C° 0 mm 2 mps 747 mmHg 90%
09:00 +10°C° 0 mm 3 mps 748 mmHg 87%
10:00 +10°C° 0 mm 3 mps 748 mmHg 84%
11:00 +10°C° 0 mm 3 mps 748 mmHg 82%
12:00 +11°C° 0 mm 3 mps 749 mmHg 81%
13:00 +11°C° 0 mm 3 mps 749 mmHg 79%
14:00 +10°C° 0 mm 3 mps 749 mmHg 81%
15:00 +10°C° 0 mm 3 mps 749 mmHg 83%
16:00 +9°C° 0 mm 3 mps 749 mmHg 84%
17:00 +9°C° 0 mm 3 mps 749 mmHg 84%
18:00 +9°C° 0 mm 3 mps 749 mmHg 84%
19:00 +9°C° 0 mm 3 mps 750 mmHg 84%
20:00 +9°C° 0.1 mm 3 mps 749 mmHg 83%
21:00 +8°C° 0.1 mm 4 mps 749 mmHg 82%
22:00 +8°C° 0.1 mm 4 mps 749 mmHg 82%
23:00 +8°C° 0 mm 3 mps 751 mmHg 94%

Day after tomorrow, 28 October, Wednesday

Time Temperature Precipitation Wind Pressure Humidity
00:00 +8°C° 0 mm 3 mps 751 mmHg 94%
01:00 +8°C° 0 mm 3 mps 751 mmHg 94%
02:00 +8°C° 0 mm 3 mps 751 mmHg 94%
03:00 +7°C° 0 mm 3 mps 751 mmHg 94%
04:00 +7°C° 0 mm 3 mps 751 mmHg 94%
05:00 +7°C° 0 mm 3 mps 751 mmHg 94%
06:00 +7°C° 0 mm 3 mps 751 mmHg 93%
07:00 +7°C° 0 mm 3 mps 751 mmHg 93%
08:00 +8°C° 0 mm 3 mps 751 mmHg 89%
09:00 +8°C° 0 mm 3 mps 752 mmHg 85%
10:00 +8°C° 0 mm 4 mps 752 mmHg 82%
11:00 +8°C° 0 mm 4 mps 752 mmHg 80%
12:00 +9°C° 0 mm 5 mps 752 mmHg 78%
13:00 +9°C° 0 mm 5 mps 752 mmHg 77%
14:00 +9°C° 0 mm 5 mps 752 mmHg 79%
15:00 +9°C° 0 mm 5 mps 752 mmHg 81%
16:00 +9°C° 0 mm 5 mps 751 mmHg 83%
17:00 +9°C° 0.3 mm 5 mps 751 mmHg 84%
18:00 +8°C° 0.3 mm 6 mps 751 mmHg 86%
19:00 +8°C° 0.3 mm 6 mps 751 mmHg 87%
20:00 +8°C° 0.3 mm 6 mps 751 mmHg 88%
21:00 +8°C° 0.3 mm 5 mps 751 mmHg 90%
22:00 +8°C° 0.3 mm 4 mps 751 mmHg 92%
23:00 +8°C° 0.1 mm 4 mps 751 mmHg 92%

29 October, Thursday

Time Temperature Precipitation Wind Pressure Humidity
00:00 +9°C° 0.1 mm 3 mps 751 mmHg 92%
01:00 +9°C° 0.1 mm 3 mps 751 mmHg 93%
02:00 +8°C° 0 mm 2 mps 751 mmHg 93%
03:00 +8°C° 0 mm 2 mps 751 mmHg 94%
04:00 +7°C° 0 mm 2 mps 750 mmHg 94%
05:00 +7°C° 0 mm 2 mps 751 mmHg 94%
06:00 +7°C° 0 mm 2 mps 751 mmHg 94%
07:00 +7°C° 0 mm 2 mps 751 mmHg 93%
08:00 +8°C° 0 mm 3 mps 751 mmHg 91%
09:00 +9°C° 0 mm 3 mps 750 mmHg 88%
10:00 +10°C° 0 mm 4 mps 750 mmHg 85%
11:00 +10°C° 0.4 mm 4 mps 750 mmHg 82%
12:00 +11°C° 0.4 mm 4 mps 750 mmHg 80%
13:00 +11°C° 0.4 mm 4 mps 750 mmHg 77%
14:00 +10°C° 0.1 mm 4 mps 750 mmHg 81%
15:00 +10°C° 0.1 mm 3 mps 750 mmHg 85%
16:00 +9°C° 0.1 mm 3 mps 749 mmHg 89%
17:00 +9°C° 0 mm 3 mps 749 mmHg 90%
18:00 +8°C° 0 mm 3 mps 750 mmHg 91%
19:00 +8°C° 0 mm 3 mps 750 mmHg 92%
20:00 +8°C° 0 mm 3 mps 750 mmHg 91%
21:00 +7°C° 0 mm 4 mps 750 mmHg 91%
22:00 +7°C° 0 mm 4 mps 750 mmHg 90%
23:00 +7°C° 0 mm 4 mps 750 mmHg 90%

30 October, Friday

Time Temperature Precipitation Wind Pressure Humidity
00:00 +7°C° 0 mm 4 mps 750 mmHg 91%
01:00 +7°C° 0 mm 4 mps 749 mmHg 91%
02:00 +7°C° 0 mm 4 mps 749 mmHg 90%
03:00 +7°C° 0 mm 5 mps 748 mmHg 89%
04:00 +7°C° 0 mm 5 mps 748 mmHg 88%
05:00 +8°C° 1.2 mm 6 mps 747 mmHg 89%
06:00 +8°C° 1.2 mm 7 mps 746 mmHg 90%
07:00 +9°C° 1.2 mm 8 mps 745 mmHg 91%
08:00 +9°C° 1 mm 7 mps 745 mmHg 89%
09:00 +10°C° 1 mm 7 mps 744 mmHg 87%
10:00 +10°C° 1 mm 6 mps 744 mmHg 84%
11:00 +10°C° 0.1 mm 6 mps 745 mmHg 81%
12:00 +11°C° 0.1 mm 6 mps 745 mmHg 78%
13:00 +11°C° 0.1 mm 6 mps 745 mmHg 75%
14:00 +10°C° 0 mm 6 mps 746 mmHg 75%
15:00 +10°C° 0 mm 6 mps 746 mmHg 75%
16:00 +9°C° 0 mm 6 mps 747 mmHg 75%
17:00 +9°C° 0 mm 6 mps 747 mmHg 76%
18:00 +9°C° 0 mm 6 mps 748 mmHg 77%
19:00 +8°C° 0 mm 6 mps 748 mmHg 78%
20:00 +8°C° 0 mm 6 mps 748 mmHg 78%
21:00 +8°C° 0 mm 6 mps 749 mmHg 79%
22:00 +8°C° 0 mm 7 mps 749 mmHg 79%
23:00 +7°C° 0 mm 6 mps 750 mmHg 79%

31 October, Saturday

Time Temperature Precipitation Wind Pressure Humidity
00:00 +7°C° 0 mm 6 mps 750 mmHg 78%
01:00 +7°C° 0 mm 6 mps 751 mmHg 77%
02:00 +7°C° 0 mm 6 mps 752 mmHg 77%
03:00 +7°C° 0 mm 6 mps 752 mmHg 78%
04:00 +5°C° 0 mm 6 mps 753 mmHg 78%
05:00 +6°C° 0 mm 5 mps 753 mmHg 79%
06:00 +6°C° 0 mm 5 mps 753 mmHg 79%
07:00 +6°C° 0 mm 4 mps 754 mmHg 80%
Show more